Flag for Kuwait Weather past 2 weeks in Kuwait City, Kuwait

Now
93 °F

Sunny.


Feels Like: 89 °F
Forecast: 94 / 114 °F
Wind: 6 mph from West

Location: Kuwait International Airport

Current Time: Jul 25, 2014 at 6:47:52 AM

Latest Report: Jul 25, 2014 at 6:00 AM


Visibility: 10 mi

Pressure: 29.47 "Hg

Humidity: 19%

Dew point: 45 °F

Location of Kuwait CityLocation

Historic Weather in Kuwait City — Graph

°F

Kuwait City temperature yesterday

Maximum temperature yesterday: 115 °F (at 2:00 PM)
Minimum temperature yesterday: 88 °F (at 4:00 AM)
Average temperature yesterday: 102 °F

Past Weeks' High & Low Weather Summary

 TemperatureHumidityPressure
High120 °F (Jul 17, 2:00 PM)30% (Jul 21, 5:00 AM)29.56 "Hg (Jul 21, 5:00 AM)
Low82 °F (Jul 10, 5:00 AM)6% (Jul 10, 2:00 PM)29.36 "Hg (Jul 18, 4:00 PM)
Average104 °F13%29.48 "Hg
* Reported Jul 10 5:00 AM — Jul 25 5:00 AM, Kuwait City, Weather by CustomWeather, © 2014

Note: Actual official high and low records may vary slightly from our data, if they occured in-between our weather recording intervals... More about our weather records

Advertising

Kuwait City weather history for previous 24 hours

 ConditionsComfort  
Time TempWeatherWind HumidityBarometerVisibility
5:00 AM
Jul 25
95 °FClear.9 mph18%29.47 "Hg10 mi
4:00 AM99 °FClear.12 mph17%29.45 "Hg10 mi
3:00 AM91 °FClear.7 mph21%29.45 "Hg10 mi
2:00 AM93 °FClear.8 mph20%29.45 "Hg10 mi
1:00 AM97 °FClear.9 mph18%29.45 "Hg10 mi
12:00 AM95 °FClear.6 mph19%29.45 "Hg10 mi
11:00 PM
Jul 24
97 °FClear.6 mph18%29.45 "Hg10 mi
10:00 PM104 °FClear.10 mph15%29.45 "Hg10 mi
9:00 PM106 °FClear.12 mph13%29.45 "Hg10 mi
8:00 PM108 °FClear.14 mph14%29.42 "Hg10 mi
7:00 PM109 °FClear.14 mph13%29.42 "Hg10 mi
6:00 PM113 °FSunny.18 mph11%29.39 "Hg10 mi
5:00 PM115 °FSunny.17 mph11%29.39 "Hg10 mi
4:00 PM115 °FSunny.20 mph11%29.39 "Hg10 mi
3:00 PM115 °FSunny.18 mph11%29.39 "Hg10 mi
2:00 PM115 °FSunny.17 mph11%29.42 "Hg10 mi
1:00 PM113 °FSunny.17 mph12%29.45 "Hg10 mi
12:00 PM113 °FSunny.18 mph12%29.45 "Hg10 mi
11:00 AM111 °FSunny.21 mph14%29.47 "Hg10 mi
10:00 AM106 °FSunny.16 mph17%29.47 "Hg10 mi
9:00 AM104 °FSunny.18 mph15%29.47 "Hg10 mi
8:00 AM100 °FSunny.12 mph17%29.47 "Hg10 mi
7:00 AM95 °FSunny.8 mph19%29.47 "Hg10 mi
6:00 AM91 °FSunny.8 mph20%29.47 "Hg10 mi
Weather by CustomWeather, © 2014

See weather overviewHow to use our weather pages